Location: Claremont
(33.9858°S, 18.4575°E)
Time: 16:26:11
(UTC+00:00)

deb Transit VC - Visible Passes

Search period start: 25 September 2021 00:00
Search period end: 05 October 2021 00:00
Orbit: 841 x 908 km, 90.5° (Epoch: 24 September)

Date Brightness Start Highest point End Pass type
(mag) Time Alt. Az. Time Alt. Az. Time Alt. Az.
25 Sep ? 17:15:47 10° NNW 17:21:18 47° W 17:26:48 10° SSW visible
26 Sep ? 17:11:02 10° NNW 17:16:34 49° W 17:22:05 10° SSW visible
27 Sep ? 03:58:39 10° SSE 04:03:37 33° E 04:08:33 10° NNE visible
27 Sep ? 17:06:18 10° NNW 17:11:50 50° W 17:17:22 10° SSW visible
28 Sep ? 03:53:57 10° SSE 03:58:53 32° E 04:03:48 10° NNE visible
28 Sep ? 17:01:34 10° NNW 17:07:07 51° W 17:12:38 10° SSW visible
29 Sep ? 03:49:14 10° SSE 03:54:08 31° E 03:59:01 10° NNE visible
30 Sep ? 03:44:32 10° SSE 03:49:24 30° E 03:54:16 10° NNE visible
01 Oct ? 03:39:49 10° SSE 03:44:40 30° E 03:49:30 10° NNE visible
02 Oct ? 03:35:07 10° SSE 03:39:55 29° E 03:44:44 10° NNE visible
03 Oct ? 03:30:24 10° SSE 03:35:11 29° E 03:39:58 10° NE visible
04 Oct ? 03:25:42 10° SSE 03:30:27 28° E 03:35:12 10° NE visible
